Regional Weather Roundup
Issued by NWS Lake Charles, LA

Home | Current Version | Previous Version | Text Only | Print | Product List | Glossary On
Versions: 1 2 3 4 5 6 7 8 9 10 11 12 13 14 15 16 17 18 19 20 21 22 23 24 25 26 27 28 29 30 31 32 33 34 35 36 37 38 39 40 41 42 43 44 45 46 47 48 49 50
411
ASUS44 KLCH 201310
RWRLCH
REGIONAL WEATHER ROUNDUP
NATIONAL WEATHER SERVICE LAKE CHARLES LA
800 AM CDT WED SEP 20 2017

Note: "fair" indicates few or no clouds below 12,000 feet with no
significant weather and/or obstructions to visibility.


ACROSS SOUTHEAST TEXAS

CITY           SKY/WX    TMP DP  RH WIND       PRES   REMARKS
BEAUMONT       PTSUNNY   82  78  88 S5        29.95R
BEAUMONT CITY  CLOUDY    80  77  90 CALM      29.96R
ORANGE         PTSUNNY   81  79  94 S3        29.97R
JASPER         CLOUDY    77  77  98 CALM      29.99S FOG
$$

ACROSS CENTRAL LOUISIANA

CITY           SKY/WX    TMP DP  RH WIND       PRES   REMARKS
LEESVILLE      CLOUDY    76  75  97 SE3       29.98R
FULLERTON      CLOUDY    76  76 100 SW3       29.97R FOG
ALEXANDRIA INT FOG       75  75 100 CALM      29.97R VSB 1
ESLER FIELD    FOG       74  74 100 CALM      29.99R VSB 1/4
DERIDDER       CLOUDY    75  74  95 CALM      30.00R FOG
OAKDALE        FOG       74  73  96 CALM      29.98S VSB 1/4
OPELOUSAS      FAIR      76  76 100 CALM      29.99R
$$

ACROSS SOUTHWEST AND SOUTH CENTRAL LOUISIANA

CITY           SKY/WX    TMP DP  RH WIND       PRES   REMARKS
SULPHUR        MOSUNNY   79  76  91 CALM      29.98R
LAKE CHARLES   MOSUNNY   78  76  93 CALM      29.97R
CHENNAULT INT  MOSUNNY   75  75 100 CALM      29.97R
CAMERON PHI      N/A     82  77  83 S12       29.95R
DEQUINCY       FAIR      73  73  98 CALM      29.98R FOG
JENNINGS       FAIR      77  76  94 SE5       29.98R
LAFAYETTE      SUNNY     78  77  96 CALM      29.98S
NEW IBERIA     SUNNY     78  74  87 CALM      29.99R
ABBEVILLE      FAIR      75  75 100 MISG      29.99R
PATTERSON      SUNNY     78  76  93 CALM      30.00R
SALT POINT       N/A     83  75  77 CALM      29.97R
$$

SELECTED SITES ACROSS THE REGION

CITY           SKY/WX    TMP DP  RH WIND       PRES   REMARKS
HOUSTON BUSH   MOSUNNY   80  76  87 S3        29.94R
HOUSTON HOBBY  MOSUNNY   80  76  87 S5        29.93S
GALVESTON      MOSUNNY   84  79  85 S10       29.94R
COLLEGE STAT   CLOUDY    78  77  96 S7        29.93R
CONROE         MOSUNNY   76  75  97 SE3       29.94F FOG
HUNTSVILLE     CLEAR     78  75  90 S6        29.94R FOG
LUFKIN         CLOUDY    77  76  96 S3        29.95R
SHREVEPORT     CLOUDY    78  76  93 S7        29.95R
MONROE         PTSUNNY   74  74 100 CALM      29.99R FOG
NATCHEZ MS     CLOUDY    75  74  96 S3        30.01R
BATON ROUGE    MOSUNNY   75  73  93 CALM      30.00R
N.O. INTL ARPT PTSUNNY   79  76  90 S3        30.00R
SLIDELL        CLOUDY    78  74  87 CALM      29.99S
$$

MARINE REPORTS

STATION/POSITION TIME  SKY/WX   TEMP    WIND        PRES    VSBY
                                AIR SEA DIR/SP/G
                 (UTC)          (F)     (DEG/KT/KT) (MB)    (MI)
BUOY 30 S HIGH I 1150            83 83  190/ 12/ 14 1013.3
WVE H/P(F/S)=  3/ 5

SEA RIM ST PARK  1200            82     180/ 11/ 14 1014.4R
PORT ARTHUR      1248            81 82  190/  5/  7 1014.5R
SABINE PASS N    1248            82 84  180/  8/ 12 1015.7R
TEXAS POINT      NOT AVBL
CALCASIEU PASS   1236               84  210/ 12/ 15 1013.6R
LK CHARLES BEACH NOT AVBL
MARSH ISLAND     1200            83                   N/A
FRESH WATER LOCK 1248            82 84  160/  7/ 11 1015.0R
AMERADA PASS     1248            80 83  180/  2/  4 1015.2R
$$




USA.gov is the U.S. government's official web portal to all federal, state and local government web resources and services.